Вернуться в каталог

LIJIAN-1 Y13 STAGE 4

АктивенPO
NORAD 69102·ROCKET BODY·🇨🇳 China
Это название спутника еще не подтверждено официальными источниками.

Запущен May 15, 2026 с Jiuquan Satellite Launch Center

Loading…

Ближайшие Пролёты (ближайшие 24 часа)

TLE

СвежийSource: Space-Track

Эпоха: Sep 14, 2026, 13:15 UTC

1 69102U 26106F   26257.55212252  .00055961  31515-5  34326-3 0  9996
2 69102  97.4964 346.7314 0135335 283.0271  75.5909 15.65562433 19049

Отслеживайте LIJIAN-1 Y13 STAGE 4 в реальном времени с AllMySat

Download on the App Store